Location: Mentone
(34.5413°N, 85.5351°W)
Time: 04:44:13
(UTC-05:00)

UOSAT-12 - Visible Passes

Search period start: 31 March 2015 00:00
Search period end: 10 April 2015 00:00
Orbit: 596 x 660 km, 64.6° (Epoch: 31 March)

Date Brightness Start Highest point End Pass type
(mag) Time Alt. Az. Time Alt. Az. Time Alt. Az.
31 Mar 9.8 04:09:41 10° N 04:13:00 19° NE 04:16:23 10° E visible
31 Mar 7.5 05:48:59 10° NW 05:53:23 42° WSW 05:57:39 10° S visible
31 Mar 7.7 19:56:02 10° SW 20:00:40 63° WNW 20:05:22 10° NNE visible
01 Apr 8.4 04:29:06 10° NNW 04:33:30 40° NE 04:37:49 10° SE visible
01 Apr 9.3 20:16:57 10° WSW 20:21:01 28° NW 20:25:05 10° N visible
02 Apr 10.3 03:11:30 10° NNE 03:12:53 11° NE 03:14:28 10° ENE visible
02 Apr 7.0 04:49:05 10° NNW 04:53:44 85° WSW 04:58:17 10° SSE visible
02 Apr 10.2 20:39:02 10° W 20:41:38 14° NW 20:44:04 10° NNW visible
03 Apr 9.4 03:29:54 10° N 03:33:34 23° NE 03:37:15 10° ESE visible
03 Apr 7.7 05:09:35 10° NW 05:13:48 34° WSW 05:17:52 10° S visible
04 Apr 9.5 03:57:36 15° SE 03:57:36 15° SE 03:58:25 10° SE visible
04 Apr 9.0 05:35:16 12° SW 05:35:16 12° SW 05:36:02 10° SW visible
04 Apr 9.7 19:37:42 10° WSW 19:41:33 24° NW 19:45:20 10° N visible
05 Apr 10.3 20:00:18 10° WNW 20:02:13 12° NW 20:03:55 10° NNW visible
